Weather History for Jefferson, NC

Change the Weather History Date:

Thursday, March 3, 2011

  Actual Average Record
Temperature  
Mean Temperature 40 °F -  
Max Temperature 48 °F 53 °F 75 °F (1976)
Min Temperature 32 °F 30 °F 2 °F (1980)
Degree Days  
Heating Degree Days 25    
Moisture  
Dew Point 19 °F    
Average Humidity 44    
Maximum Humidity 75    
Minimum Humidity 25    
Precipitation  
Precipitation 0.00 in - - ()
Sea Level Pressure  
Sea Level Pressure 30.38 in    
Wind  
Wind Speed 3 mph (SE)    
Max Wind Speed 12 mph    
Max Gust Speed 17 mph    
Visibility 10 miles    
Events      
Averages and records for this station are not official NWS values.
T = Trace of Precipitation, MM = Missing Value Source: NWS Daily Summary

Daily Weather History Graph

Daily Weather History Graph

Search for Another Location

Airport:

Trip Planner

Search our weather history database for the weather conditions in past years. The results will help you decide how hot, cold, wet, or windy it might be!

Date:

Astronomy

Mar. 03, 2011 Rise Set
Actual Time 6:53 AM EST 6:21 PM EST
Civil Twilight 6:28 AM EST 6:47 PM EST
Nautical Twilight 5:58 AM EST 7:17 PM EST
Astronomical Twilight 5:28 AM EST 7:47 PM EST
Moon 5:58 AM EST (3/3) 5:33 PM EST (3/3)
Length of Visible Light 12h 19m
Length of Day
11h 28m
Waning Crescent, 1% of the Moon is Illuminated
Mar 3
Waning Crescent
Mar 4
New
Mar 12
First Quarter
Mar 19
Full
Mar 26
Last Quarter

Hourly Weather History & Observations

Time (EST) Temp. Windchill Dew Point Humidity Pressure Visibility Wind Dir Wind Speed Gust Speed Precip Events Conditions
12:04 AM 39.2 °F - 23.0 °F 52% 30.30 in 10.0 mi Calm Calm - N/A   Clear
12:23 AM 39.2 °F - 21.2 °F 49% 30.31 in 10.0 mi Calm Calm - N/A   Clear
1:04 AM 37.4 °F 34.9 °F 23.0 °F 56% 30.31 in 10.0 mi NNE 3.5 mph - N/A   Clear
1:24 AM 37.4 °F 32.8 °F 23.0 °F 56% 30.32 in 10.0 mi North 5.8 mph - N/A   Clear
1:43 AM 37.4 °F 32.8 °F 23.0 °F 56% 30.32 in 10.0 mi North 5.8 mph - N/A   Clear
2:04 AM 39.2 °F 37.0 °F 24.8 °F 56% 30.33 in 10.0 mi North 3.5 mph - N/A   Clear
2:23 AM 39.2 °F 37.0 °F 24.8 °F 56% 30.33 in 10.0 mi North 3.5 mph - N/A   Clear
2:43 AM 37.4 °F - 24.8 °F 60% 30.33 in 10.0 mi Calm Calm - N/A   Clear
3:03 AM 37.4 °F - 24.8 °F 60% 30.33 in 10.0 mi Calm Calm - N/A   Clear
3:23 AM 35.6 °F - 24.8 °F 65% 30.33 in 10.0 mi Calm Calm - N/A   Clear
3:44 AM 35.6 °F - 24.8 °F 65% 30.33 in 10.0 mi Calm Calm - N/A   Clear
4:23 AM 35.6 °F 31.7 °F 23.0 °F 60% 30.33 in 10.0 mi NNW 4.6 mph - N/A   Clear
4:44 AM 35.6 °F 29.9 °F 23.0 °F 60% 30.33 in 10.0 mi North 6.9 mph - N/A   Clear
5:03 AM 35.6 °F 30.7 °F 23.0 °F 60% 30.34 in 10.0 mi North 5.8 mph - N/A   Clear
5:23 AM 35.6 °F 32.8 °F 23.0 °F 60% 30.34 in 10.0 mi NNW 3.5 mph - N/A   Clear
5:44 AM 35.6 °F - 23.0 °F 60% 30.35 in 10.0 mi Calm Calm - N/A   Clear
6:03 AM 35.6 °F - 23.0 °F 60% 30.35 in 10.0 mi Calm Calm - N/A   Clear
6:24 AM 32.0 °F 28.7 °F 23.0 °F 69% 30.36 in 10.0 mi North 3.5 mph - N/A   Clear
6:44 AM 33.8 °F 30.8 °F 23.0 °F 65% 30.37 in 10.0 mi NNE 3.5 mph - N/A   Clear
7:04 AM 32.0 °F - 23.0 °F 69% 30.38 in 10.0 mi Calm Calm - N/A   Clear
7:24 AM 32.0 °F - 24.8 °F 75% 30.39 in 10.0 mi Calm Calm - N/A   Clear
7:43 AM 33.8 °F - 24.8 °F 70% 30.39 in 10.0 mi Calm Calm - N/A   Clear
8:03 AM 33.8 °F 30.8 °F 24.8 °F 70% 30.40 in 10.0 mi South 3.5 mph - N/A   Clear
8:23 AM 35.6 °F - 24.8 °F 65% 30.41 in 10.0 mi Calm Calm - N/A   Clear
8:43 AM 37.4 °F - 26.6 °F 65% 30.42 in 10.0 mi Calm Calm - N/A   Clear
9:05 AM 39.2 °F - 23.0 °F 52% 30.42 in 10.0 mi Calm Calm - N/A   Clear
9:24 AM 39.2 °F 35.9 °F 21.2 °F 49% 30.42 in 10.0 mi South 4.6 mph - N/A   Clear
9:44 AM 41.0 °F 39.0 °F 21.2 °F 45% 30.42 in 10.0 mi South 3.5 mph - N/A   Clear
10:04 AM 42.8 °F 41.1 °F 17.6 °F 36% 30.42 in 10.0 mi SSE 3.5 mph - N/A   Clear
10:26 AM 44.6 °F 41.4 °F 17.6 °F 34% 30.42 in 10.0 mi SSE 5.8 mph - N/A   Clear
10:43 AM 44.6 °F 41.4 °F 15.8 °F 31% 30.42 in 10.0 mi SE 5.8 mph - N/A   Clear
11:03 AM 46.4 °F 42.9 °F 15.8 °F 29% 30.42 in 10.0 mi ESE 6.9 mph - N/A   Clear
11:23 AM 46.4 °F 41.9 °F 15.8 °F 29% 30.42 in 10.0 mi SE 9.2 mph - N/A   Clear
12:03 PM 46.4 °F 42.4 °F 12.2 °F 25% 30.41 in 10.0 mi SE 8.1 mph - N/A   Clear
12:23 PM 48.2 °F - 14.0 °F 25% 30.42 in 10.0 mi SE 5.8 mph - N/A   Clear
12:43 PM 48.2 °F - 15.8 °F 27% 30.41 in 10.0 mi SE 6.9 mph - N/A   Clear
1:03 PM 48.2 °F - 15.8 °F 27% 30.40 in 10.0 mi SSE 9.2 mph - N/A   Clear
1:23 PM 46.4 °F 43.5 °F 15.8 °F 29% 30.39 in 10.0 mi SE 5.8 mph 17.3 mph N/A   Clear
1:43 PM 48.2 °F - 15.8 °F 27% 30.38 in 10.0 mi SSE 6.9 mph - N/A   Clear
2:03 PM 46.4 °F 41.1 °F 15.8 °F 29% 30.38 in 10.0 mi SE 11.5 mph 16.1 mph N/A   Clear
2:23 PM 48.2 °F - 17.6 °F 30% 30.38 in 10.0 mi SE 6.9 mph - N/A   Clear
2:42 PM 48.2 °F - 17.6 °F 30% 30.37 in 10.0 mi SE 8.1 mph - N/A   Clear
3:02 PM 48.2 °F - 15.8 °F 27% 30.36 in 10.0 mi SE 6.9 mph - N/A   Clear
3:22 PM 46.4 °F 41.9 °F 15.8 °F 29% 30.36 in 10.0 mi SE 9.2 mph 16.1 mph N/A   Clear
3:42 PM 46.4 °F 41.9 °F 15.8 °F 29% 30.36 in 10.0 mi SE 9.2 mph - N/A   Clear
4:02 PM 46.4 °F 42.4 °F 15.8 °F 29% 30.36 in 10.0 mi SE 8.1 mph 16.1 mph N/A   Clear
4:22 PM 46.4 °F 42.4 °F 15.8 °F 29% 30.37 in 10.0 mi SE 8.1 mph - N/A   Clear
4:42 PM 44.6 °F 41.4 °F 15.8 °F 31% 30.37 in 10.0 mi SSE 5.8 mph - N/A   Clear
5:04 PM 44.6 °F 42.2 °F 15.8 °F 31% 30.37 in 10.0 mi SE 4.6 mph - N/A   Clear
5:22 PM 42.8 °F 39.3 °F 15.8 °F 34% 30.37 in 10.0 mi SE 5.8 mph - N/A   Clear
5:42 PM 42.8 °F 38.6 °F 15.8 °F 34% 30.37 in 10.0 mi SE 6.9 mph - N/A   Scattered Clouds
6:02 PM 41.0 °F 36.4 °F 15.8 °F 36% 30.38 in 10.0 mi SSE 6.9 mph - N/A   Clear
6:22 PM 41.0 °F 39.0 °F 15.8 °F 36% 30.39 in 10.0 mi SE 3.5 mph - N/A   Clear
6:42 PM 39.2 °F 34.2 °F 15.8 °F 39% 30.40 in 10.0 mi SE 6.9 mph - N/A   Clear
7:23 PM 39.2 °F 35.9 °F 15.8 °F 39% 30.42 in 10.0 mi SSE 4.6 mph - N/A   Clear
7:42 PM 39.2 °F 35.9 °F 15.8 °F 39% 30.42 in 10.0 mi SSE 4.6 mph - N/A   Clear
8:04 PM 37.4 °F 34.9 °F 15.8 °F 41% 30.42 in 10.0 mi SE 3.5 mph - N/A   Clear
8:22 PM 37.4 °F 34.9 °F 15.8 °F 41% 30.42 in 10.0 mi SSE 3.5 mph - N/A   Clear
8:42 PM 37.4 °F 33.8 °F 14.0 °F 38% 30.43 in 10.0 mi SE 4.6 mph - N/A   Clear
9:02 PM 37.4 °F 33.8 °F 14.0 °F 38% 30.43 in 10.0 mi SSE 4.6 mph - N/A   Clear
9:23 PM 35.6 °F 30.7 °F 12.2 °F 38% 30.43 in 10.0 mi SSE 5.8 mph - N/A   Clear
9:42 PM 35.6 °F 32.8 °F 12.2 °F 38% 30.44 in 10.0 mi SSE 3.5 mph - N/A   Clear
10:22 PM 35.6 °F - 10.4 °F 35% 30.44 in 10.0 mi Calm Calm - N/A   Clear
10:42 PM 35.6 °F 31.7 °F 12.2 °F 38% 30.43 in 10.0 mi SSE 4.6 mph - N/A   Clear
11:02 PM 33.8 °F 29.6 °F 12.2 °F 41% 30.43 in 10.0 mi SE 4.6 mph - N/A   Clear
11:22 PM 33.8 °F 30.8 °F 10.4 °F 38% 30.44 in 10.0 mi SE 3.5 mph - N/A   Clear
11:42 PM 33.8 °F 29.6 °F 10.4 °F 38% 30.43 in 10.0 mi SSE 4.6 mph - N/A   Clear